Year,Month,Day,Hour,Minute,Value (Times are PST for temperature in C)
2005,04,24,00,01,13.30
2005,04,24,00,02,13.20
2005,04,24,00,03,13.10
2005,04,24,00,04,13.10
2005,04,24,00,05,13.10
2005,04,24,00,06,13.10
2005,04,24,00,07,13.10
2005,04,24,00,08,13.00
2005,04,24,00,09,13.00
2005,04,24,00,10,13.00
2005,04,24,00,11,12.90
2005,04,24,00,12,12.90
2005,04,24,00,13,12.80
2005,04,24,00,14,12.90
2005,04,24,00,15,12.90
2005,04,24,00,16,12.90
2005,04,24,00,17,12.80
2005,04,24,00,18,12.80
2005,04,24,00,19,12.80
2005,04,24,00,20,12.80
2005,04,24,00,21,12.80
2005,04,24,00,22,12.80
2005,04,24,00,23,12.70
2005,04,24,00,24,12.70
2005,04,24,00,25,12.70
2005,04,24,00,26,12.70
2005,04,24,00,27,12.70
2005,04,24,00,28,12.80
2005,04,24,00,29,12.80
2005,04,24,00,30,12.70
2005,04,24,00,31,12.70
2005,04,24,00,32,12.70
2005,04,24,00,33,12.70
2005,04,24,00,34,12.70
2005,04,24,00,35,12.80
2005,04,24,00,36,12.80
2005,04,24,00,37,12.80
2005,04,24,00,38,12.80
2005,04,24,00,39,12.70
2005,04,24,00,40,12.70
2005,04,24,00,41,12.70
2005,04,24,00,42,12.70
2005,04,24,00,43,12.70
2005,04,24,00,44,12.70
2005,04,24,00,45,12.70
2005,04,24,00,46,12.60
2005,04,24,00,47,12.70
2005,04,24,00,48,12.80
2005,04,24,00,49,12.80
2005,04,24,00,50,12.70
2005,04,24,00,51,12.70
2005,04,24,00,52,12.60
2005,04,24,00,53,12.60
2005,04,24,00,54,12.60
2005,04,24,00,55,12.60
2005,04,24,00,56,12.50
2005,04,24,00,57,12.50
2005,04,24,00,58,12.50
2005,04,24,00,59,12.50
2005,04,24,01,00,12.50
2005,04,24,01,01,12.50
2005,04,24,01,02,12.50
2005,04,24,01,03,12.50
2005,04,24,01,04,12.50
2005,04,24,01,05,12.50
2005,04,24,01,06,12.50
2005,04,24,01,07,12.50
2005,04,24,01,08,12.50
2005,04,24,01,09,12.50
2005,04,24,01,10,12.40
2005,04,24,01,11,12.40
2005,04,24,01,12,12.40
2005,04,24,01,13,12.50
2005,04,24,01,14,12.50
2005,04,24,01,15,12.50
2005,04,24,01,16,12.50
2005,04,24,01,17,12.50
2005,04,24,01,18,12.50
2005,04,24,01,19,12.50
2005,04,24,01,20,12.50
2005,04,24,01,21,12.60
2005,04,24,01,22,12.60
2005,04,24,01,23,12.60
2005,04,24,01,24,12.60
2005,04,24,01,25,12.60
2005,04,24,01,26,12.60
2005,04,24,01,27,12.60
2005,04,24,01,28,12.70
2005,04,24,01,29,12.70
2005,04,24,01,30,12.70
2005,04,24,01,31,12.70
2005,04,24,01,32,12.80
2005,04,24,01,33,12.90
2005,04,24,01,34,13.00
2005,04,24,01,35,13.00
2005,04,24,01,36,13.00
2005,04,24,01,37,13.00
2005,04,24,01,38,13.00
2005,04,24,01,39,13.10
2005,04,24,01,40,13.10
2005,04,24,01,41,13.10
2005,04,24,01,42,13.10
2005,04,24,01,43,13.10
2005,04,24,01,44,13.10
2005,04,24,01,45,13.10
2005,04,24,01,46,13.20
2005,04,24,01,47,13.20
2005,04,24,01,48,13.20
2005,04,24,01,49,13.20
2005,04,24,01,50,13.10
2005,04,24,01,51,13.10
2005,04,24,01,52,13.10
2005,04,24,01,53,13.10
2005,04,24,01,54,13.10
2005,04,24,01,55,13.10
2005,04,24,01,56,13.10
2005,04,24,01,57,13.00
2005,04,24,01,58,13.00
2005,04,24,01,59,13.10
2005,04,24,02,00,13.10
2005,04,24,02,01,13.10
2005,04,24,02,02,13.10
2005,04,24,02,03,13.00
2005,04,24,02,04,12.90
2005,04,24,02,05,12.90
2005,04,24,02,06,12.80
2005,04,24,02,07,12.80
2005,04,24,02,08,12.80
2005,04,24,02,09,12.80
2005,04,24,02,10,12.80
2005,04,24,02,11,12.80
2005,04,24,02,12,12.80
2005,04,24,02,13,12.90
2005,04,24,02,14,12.90
2005,04,24,02,15,13.00
2005,04,24,02,16,13.00
2005,04,24,02,17,12.90
2005,04,24,02,18,13.00
2005,04,24,02,19,13.00
2005,04,24,02,20,12.90
2005,04,24,02,21,12.90
2005,04,24,02,22,12.90
2005,04,24,02,23,12.90
2005,04,24,02,24,12.80
2005,04,24,02,25,12.80
2005,04,24,02,26,12.90
2005,04,24,02,27,13.00
2005,04,24,02,28,13.00
2005,04,24,02,29,13.00
2005,04,24,02,30,13.00
2005,04,24,02,31,13.00
2005,04,24,02,32,13.00
2005,04,24,02,33,13.00
2005,04,24,02,34,13.00
2005,04,24,02,35,13.00
2005,04,24,02,36,13.00
2005,04,24,02,37,12.90
2005,04,24,02,38,12.90
2005,04,24,02,39,13.00
2005,04,24,02,40,13.00
2005,04,24,02,41,13.10
2005,04,24,02,42,13.00
2005,04,24,02,43,13.00
2005,04,24,02,44,13.00
2005,04,24,02,45,13.00
2005,04,24,02,46,13.10
2005,04,24,02,47,13.00
2005,04,24,02,48,13.00
2005,04,24,02,49,13.00
2005,04,24,02,50,12.90
2005,04,24,02,51,12.80
2005,04,24,02,52,12.80
2005,04,24,02,53,12.80
2005,04,24,02,54,12.80
2005,04,24,02,55,12.80
2005,04,24,02,56,12.80
2005,04,24,02,57,12.80
2005,04,24,02,58,12.80
2005,04,24,02,59,12.70
2005,04,24,03,00,12.60
2005,04,24,03,01,12.50
2005,04,24,03,02,12.30
2005,04,24,03,03,12.10
2005,04,24,03,04,12.00
2005,04,24,03,05,11.90
2005,04,24,03,06,11.80
2005,04,24,03,07,11.70
2005,04,24,03,08,11.60
2005,04,24,03,09,11.50
2005,04,24,03,10,11.40
2005,04,24,03,11,11.30
2005,04,24,03,12,11.20
2005,04,24,03,13,11.10
2005,04,24,03,14,11.00
2005,04,24,03,15,10.90
2005,04,24,03,16,10.80
2005,04,24,03,17,10.70
2005,04,24,03,18,10.70
2005,04,24,03,19,10.60
2005,04,24,03,20,10.60
2005,04,24,03,21,10.60
2005,04,24,03,22,10.60
2005,04,24,03,23,10.50
2005,04,24,03,24,10.40
2005,04,24,03,25,10.40
2005,04,24,03,26,10.40
2005,04,24,03,27,10.40
2005,04,24,03,28,10.40
2005,04,24,03,29,10.40
2005,04,24,03,30,10.40
2005,04,24,03,31,10.40
2005,04,24,03,32,10.40
2005,04,24,03,33,10.40
2005,04,24,03,34,10.40
2005,04,24,03,35,10.40
2005,04,24,03,36,10.40
2005,04,24,03,37,10.40
2005,04,24,03,38,10.40
2005,04,24,03,39,10.40
2005,04,24,03,40,10.40
2005,04,24,03,41,10.40
2005,04,24,03,42,10.40
2005,04,24,03,43,10.40
2005,04,24,03,44,10.40
2005,04,24,03,45,10.40
2005,04,24,03,46,10.40
2005,04,24,03,47,10.40
2005,04,24,03,48,10.40
2005,04,24,03,49,10.40
2005,04,24,03,50,10.40
2005,04,24,03,51,10.40
2005,04,24,03,52,10.40
2005,04,24,03,53,10.30
2005,04,24,03,54,10.30
2005,04,24,03,55,10.30
2005,04,24,03,56,10.30
2005,04,24,03,57,10.30
2005,04,24,03,58,10.30
2005,04,24,03,59,10.30
2005,04,24,04,00,10.30
2005,04,24,04,01,10.30
2005,04,24,04,02,10.30
2005,04,24,04,03,10.30
2005,04,24,04,04,10.30
2005,04,24,04,05,10.30
2005,04,24,04,06,10.30
2005,04,24,04,07,10.30
2005,04,24,04,08,10.20
2005,04,24,04,09,10.20
2005,04,24,04,10,10.20
2005,04,24,04,11,10.20
2005,04,24,04,12,10.20
2005,04,24,04,13,10.20
2005,04,24,04,14,10.20
2005,04,24,04,15,10.30
2005,04,24,04,16,10.30
2005,04,24,04,17,10.30
2005,04,24,04,18,10.30
2005,04,24,04,19,10.30
2005,04,24,04,20,10.30
2005,04,24,04,21,10.30
2005,04,24,04,22,10.30
2005,04,24,04,23,10.30
2005,04,24,04,24,10.30
2005,04,24,04,25,10.30
2005,04,24,04,26,10.30
2005,04,24,04,27,10.30
2005,04,24,04,28,10.30
2005,04,24,04,29,10.30
2005,04,24,04,30,10.30
2005,04,24,04,31,10.30
2005,04,24,04,32,10.30
2005,04,24,04,33,10.30
2005,04,24,04,34,10.30
2005,04,24,04,35,10.30
2005,04,24,04,36,10.30
2005,04,24,04,37,10.30
2005,04,24,04,38,10.30
2005,04,24,04,39,10.30
2005,04,24,04,40,10.20
2005,04,24,04,41,10.20
2005,04,24,04,42,10.20
2005,04,24,04,43,10.20
2005,04,24,04,44,10.20
2005,04,24,04,45,10.20
2005,04,24,04,46,10.20
2005,04,24,04,47,10.20
2005,04,24,04,48,10.20
2005,04,24,04,49,10.20
2005,04,24,04,50,10.20
2005,04,24,04,51,10.20
2005,04,24,04,52,10.20
2005,04,24,04,53,10.20
2005,04,24,04,54,10.20
2005,04,24,04,55,10.20
2005,04,24,04,56,10.20
2005,04,24,04,57,10.20
2005,04,24,04,58,10.20
2005,04,24,04,59,10.20
2005,04,24,05,00,10.20
2005,04,24,05,01,10.20
2005,04,24,05,02,10.20
2005,04,24,05,03,10.20
2005,04,24,05,04,10.20
2005,04,24,05,05,10.20
2005,04,24,05,06,10.20
2005,04,24,05,07,10.20
2005,04,24,05,08,10.20
2005,04,24,05,09,10.20
2005,04,24,05,10,10.20
2005,04,24,05,11,10.20
2005,04,24,05,12,10.20
2005,04,24,05,13,10.20
2005,04,24,05,14,10.20
2005,04,24,05,15,10.20
2005,04,24,05,16,10.20
2005,04,24,05,17,10.20
2005,04,24,05,18,10.20
2005,04,24,05,19,10.20
2005,04,24,05,20,10.20
2005,04,24,05,21,10.20
2005,04,24,05,22,10.20
2005,04,24,05,23,10.20
2005,04,24,05,24,10.20
2005,04,24,05,25,10.20
2005,04,24,05,26,10.20
2005,04,24,05,27,10.20
2005,04,24,05,28,10.20
2005,04,24,05,29,10.20
2005,04,24,05,30,10.20
2005,04,24,05,31,10.10
2005,04,24,05,32,10.10
2005,04,24,05,33,10.10
2005,04,24,05,34,10.10
2005,04,24,05,35,10.10
2005,04,24,05,36,10.20
2005,04,24,05,37,10.20
2005,04,24,05,38,10.10
2005,04,24,05,39,10.10
2005,04,24,05,40,10.10
2005,04,24,05,41,10.10
2005,04,24,05,42,10.10
2005,04,24,05,43,10.10
2005,04,24,05,44,10.10
2005,04,24,05,45,10.10
2005,04,24,05,46,10.10
2005,04,24,05,47,10.10
2005,04,24,05,48,10.10
2005,04,24,05,49,10.10
2005,04,24,05,50,10.10
2005,04,24,05,51,10.10
2005,04,24,05,52,10.10
2005,04,24,05,53,10.10
2005,04,24,05,54,10.10
2005,04,24,05,55,10.10
2005,04,24,05,56,10.10
2005,04,24,05,57,10.10
2005,04,24,05,58,10.20
2005,04,24,05,59,10.20
2005,04,24,06,00,10.20
2005,04,24,06,01,10.20
2005,04,24,06,02,10.20
2005,04,24,06,03,10.20
2005,04,24,06,04,10.20
2005,04,24,06,05,10.10
2005,04,24,06,06,10.10
2005,04,24,06,07,10.10
2005,04,24,06,08,10.10
2005,04,24,06,09,10.10
2005,04,24,06,10,10.10
2005,04,24,06,11,10.10
2005,04,24,06,12,10.10
2005,04,24,06,13,10.10
2005,04,24,06,14,10.10
2005,04,24,06,15,10.10
2005,04,24,06,16,10.10
2005,04,24,06,17,10.10
2005,04,24,06,18,10.10
2005,04,24,06,19,10.10
2005,04,24,06,20,10.10
2005,04,24,06,21,10.10
2005,04,24,06,22,10.10
2005,04,24,06,23,10.10
2005,04,24,06,24,10.10
2005,04,24,06,25,10.10
2005,04,24,06,26,10.10
2005,04,24,06,27,10.10
2005,04,24,06,28,10.10
2005,04,24,06,29,10.10
2005,04,24,06,30,10.10
2005,04,24,06,31,10.10
2005,04,24,06,32,10.10
2005,04,24,06,33,10.20
2005,04,24,06,34,10.20
2005,04,24,06,35,10.20
2005,04,24,06,36,10.20
2005,04,24,06,37,10.20
2005,04,24,06,38,10.20
2005,04,24,06,39,10.20
2005,04,24,06,40,10.20
2005,04,24,06,41,10.20
2005,04,24,06,42,10.20
2005,04,24,06,43,10.20
2005,04,24,06,44,10.20
2005,04,24,06,45,10.20
2005,04,24,06,46,10.20
2005,04,24,06,47,10.20
2005,04,24,06,48,10.20
2005,04,24,06,49,10.20
2005,04,24,06,50,10.30
2005,04,24,06,51,10.30
2005,04,24,06,52,10.30
2005,04,24,06,53,10.30
2005,04,24,06,54,10.30
2005,04,24,06,55,10.30
2005,04,24,06,56,10.30
2005,04,24,06,57,10.30
2005,04,24,06,58,10.20
2005,04,24,06,59,10.20
2005,04,24,07,00,10.20
2005,04,24,07,01,10.20
2005,04,24,07,02,10.30
2005,04,24,07,03,10.30
2005,04,24,07,04,10.30
2005,04,24,07,05,10.30
2005,04,24,07,06,10.30
2005,04,24,07,07,10.30
2005,04,24,07,08,10.30
2005,04,24,07,09,10.30
2005,04,24,07,10,10.30
2005,04,24,07,11,10.30
2005,04,24,07,12,10.40
2005,04,24,07,13,10.40
2005,04,24,07,14,10.40
2005,04,24,07,15,10.60
2005,04,24,07,16,10.60
2005,04,24,07,17,10.60
2005,04,24,07,18,10.70
2005,04,24,07,19,10.70
2005,04,24,07,20,10.80
2005,04,24,07,21,10.90
2005,04,24,07,22,10.90
2005,04,24,07,23,10.90
2005,04,24,07,24,10.90
2005,04,24,07,25,10.90
2005,04,24,07,26,10.90
2005,04,24,07,27,11.10
2005,04,24,07,28,11.10
2005,04,24,07,29,11.20
2005,04,24,07,30,11.20
2005,04,24,07,31,11.30
2005,04,24,07,32,11.30
2005,04,24,07,33,11.30
2005,04,24,07,34,11.30
2005,04,24,07,35,11.40
2005,04,24,07,36,11.60
2005,04,24,07,37,11.60
2005,04,24,07,38,11.70
2005,04,24,07,39,11.80
2005,04,24,07,40,12.00
2005,04,24,07,41,12.00
2005,04,24,07,42,12.00
2005,04,24,07,43,12.00
2005,04,24,07,44,12.10
2005,04,24,07,45,12.20
2005,04,24,07,46,12.20
2005,04,24,07,47,12.30
2005,04,24,07,48,12.30
2005,04,24,07,49,12.30
2005,04,24,07,50,12.20
2005,04,24,07,51,12.30
2005,04,24,07,52,12.30
2005,04,24,07,53,12.30
2005,04,24,07,54,12.30
2005,04,24,07,55,12.30
2005,04,24,07,56,12.30
2005,04,24,07,57,12.40
2005,04,24,07,58,12.50
2005,04,24,07,59,12.50
2005,04,24,08,00,12.60
2005,04,24,08,01,12.70
2005,04,24,08,02,12.80
2005,04,24,08,03,12.80
2005,04,24,08,04,12.90
2005,04,24,08,05,13.00
2005,04,24,08,06,13.10
2005,04,24,08,07,13.10
2005,04,24,08,08,13.20
2005,04,24,08,09,13.00
2005,04,24,08,10,13.00
2005,04,24,08,11,13.00
2005,04,24,08,12,13.00
2005,04,24,08,13,12.90
2005,04,24,08,14,12.80
2005,04,24,08,15,12.70
2005,04,24,08,16,12.70
2005,04,24,08,17,12.70
2005,04,24,08,18,12.50
2005,04,24,08,19,12.40
2005,04,24,08,20,12.20
2005,04,24,08,21,12.10
2005,04,24,08,22,12.10
2005,04,24,08,23,12.00
2005,04,24,08,24,12.00
2005,04,24,08,25,12.00
2005,04,24,08,26,11.90
2005,04,24,08,27,11.90
2005,04,24,08,28,11.90
2005,04,24,08,29,11.80
2005,04,24,08,30,11.80
2005,04,24,08,31,11.80
2005,04,24,08,32,11.80
2005,04,24,08,33,11.80
2005,04,24,08,34,11.80
2005,04,24,08,35,11.70
2005,04,24,08,36,11.80
2005,04,24,08,37,11.70
2005,04,24,08,38,11.70
2005,04,24,08,39,11.70
2005,04,24,08,40,11.70
2005,04,24,08,41,11.70
2005,04,24,08,42,11.70
2005,04,24,08,43,11.70
2005,04,24,08,44,11.80
2005,04,24,08,45,11.80
2005,04,24,08,46,11.80
2005,04,24,08,47,11.80
2005,04,24,08,48,11.80
2005,04,24,08,49,11.80
2005,04,24,08,50,11.80
2005,04,24,08,51,11.80
2005,04,24,08,52,11.80
2005,04,24,08,53,11.80
2005,04,24,08,54,11.80
2005,04,24,08,55,11.80
2005,04,24,08,56,11.80
2005,04,24,08,57,11.80
2005,04,24,08,58,11.80
2005,04,24,08,59,11.80
2005,04,24,09,00,11.80
2005,04,24,09,01,11.80
2005,04,24,09,02,11.80
2005,04,24,09,03,11.80
2005,04,24,09,04,11.80
2005,04,24,09,05,11.80
2005,04,24,09,06,11.80
2005,04,24,09,07,11.80
2005,04,24,09,08,11.80
2005,04,24,09,09,11.90
2005,04,24,09,10,11.90
2005,04,24,09,11,12.00
2005,04,24,09,12,12.10
2005,04,24,09,13,12.20
2005,04,24,09,14,12.30
2005,04,24,09,15,12.30
2005,04,24,09,16,12.30
2005,04,24,09,17,12.30
2005,04,24,09,18,12.30
2005,04,24,09,19,12.30
2005,04,24,09,20,12.30
2005,04,24,09,21,12.30
2005,04,24,09,22,12.40
2005,04,24,09,23,12.40
2005,04,24,09,24,12.50
2005,04,24,09,25,12.70
2005,04,24,09,26,12.80
2005,04,24,09,27,12.90
2005,04,24,09,28,13.00
2005,04,24,09,29,13.20
2005,04,24,09,30,13.30
2005,04,24,09,31,13.40
2005,04,24,09,32,13.50
2005,04,24,09,33,13.60
2005,04,24,09,34,13.70
2005,04,24,09,35,13.70
2005,04,24,09,36,13.60
2005,04,24,09,37,13.50
2005,04,24,09,38,13.40
2005,04,24,09,39,13.30
2005,04,24,09,40,13.40
2005,04,24,09,41,13.50
2005,04,24,09,42,13.60
2005,04,24,09,43,13.60
2005,04,24,09,44,13.60
2005,04,24,09,45,13.60
2005,04,24,09,46,13.50
2005,04,24,09,47,13.60
2005,04,24,09,48,13.60
2005,04,24,09,49,13.50
2005,04,24,09,50,13.40
2005,04,24,09,51,13.30
2005,04,24,09,52,13.20
2005,04,24,09,53,13.10
2005,04,24,09,54,13.10
2005,04,24,09,55,13.20
2005,04,24,09,56,13.30
2005,04,24,09,57,13.20
2005,04,24,09,58,13.20
2005,04,24,09,59,13.20
2005,04,24,10,00,13.10
2005,04,24,10,01,13.10
2005,04,24,10,02,13.10
2005,04,24,10,03,13.00
2005,04,24,10,04,13.10
2005,04,24,10,05,13.10
2005,04,24,10,06,12.90
2005,04,24,10,07,12.90
2005,04,24,10,08,12.90
2005,04,24,10,09,12.90
2005,04,24,10,10,12.90
2005,04,24,10,11,13.00
2005,04,24,10,12,13.00
2005,04,24,10,13,13.00
2005,04,24,10,14,13.00
2005,04,24,10,15,13.00
2005,04,24,10,16,13.10
2005,04,24,10,17,13.20
2005,04,24,10,18,13.50
2005,04,24,10,19,13.60
2005,04,24,10,20,13.70
2005,04,24,10,21,13.80
2005,04,24,10,22,13.90
2005,04,24,10,23,13.90
2005,04,24,10,24,13.90
2005,04,24,10,25,14.00
2005,04,24,10,26,14.00
2005,04,24,10,27,14.00
2005,04,24,10,28,14.00
2005,04,24,10,29,13.80
2005,04,24,10,30,13.70
2005,04,24,10,31,13.70
2005,04,24,10,32,13.40
2005,04,24,10,33,13.30
2005,04,24,10,34,13.30
2005,04,24,10,35,13.30
2005,04,24,10,36,13.50
2005,04,24,10,37,13.50
2005,04,24,10,38,13.60
2005,04,24,10,39,13.70
2005,04,24,10,40,13.60
2005,04,24,10,41,13.60
2005,04,24,10,42,13.50
2005,04,24,10,43,13.40
2005,04,24,10,44,13.50
2005,04,24,10,45,13.50
2005,04,24,10,46,13.50
2005,04,24,10,47,13.50
2005,04,24,10,48,13.70
2005,04,24,10,49,13.70
2005,04,24,10,50,13.70
2005,04,24,10,51,13.60
2005,04,24,10,52,13.60
2005,04,24,10,53,13.60
2005,04,24,10,54,13.50
2005,04,24,10,55,13.50
2005,04,24,10,56,13.60
2005,04,24,10,57,13.70
2005,04,24,10,58,13.70
2005,04,24,10,59,13.80
2005,04,24,11,00,13.80
2005,04,24,11,01,13.80
2005,04,24,11,02,13.70
2005,04,24,11,03,13.80
2005,04,24,11,04,13.90
2005,04,24,11,05,13.90
2005,04,24,11,06,13.90
2005,04,24,11,07,14.10
2005,04,24,11,08,14.10
2005,04,24,11,09,14.10
2005,04,24,11,10,14.20
2005,04,24,11,11,14.20
2005,04,24,11,12,14.10
2005,04,24,11,13,14.20
2005,04,24,11,14,14.30
2005,04,24,11,15,14.40
2005,04,24,11,16,14.50
2005,04,24,11,17,14.40
2005,04,24,11,18,14.30
2005,04,24,11,19,14.20
2005,04,24,11,20,14.00
2005,04,24,11,21,14.00
2005,04,24,11,22,13.90
2005,04,24,11,23,14.00
2005,04,24,11,24,13.90
2005,04,24,11,25,13.90
2005,04,24,11,26,13.90
2005,04,24,11,27,13.90
2005,04,24,11,28,14.00
2005,04,24,11,29,13.90
2005,04,24,11,30,13.90
2005,04,24,11,31,14.10
2005,04,24,11,32,14.20
2005,04,24,11,33,14.30
2005,04,24,11,34,14.30
2005,04,24,11,35,14.30
2005,04,24,11,36,14.30
2005,04,24,11,37,14.40
2005,04,24,11,38,14.40
2005,04,24,11,39,14.60
2005,04,24,11,40,14.70
2005,04,24,11,41,14.70
2005,04,24,11,42,14.70
2005,04,24,11,43,14.70
2005,04,24,11,44,14.90
2005,04,24,11,45,15.10
2005,04,24,11,46,15.20
2005,04,24,11,47,15.10
2005,04,24,11,48,14.90
2005,04,24,11,49,14.70
2005,04,24,11,50,14.70
2005,04,24,11,51,14.70
2005,04,24,11,52,14.80
2005,04,24,11,53,14.90
2005,04,24,11,54,15.20
2005,04,24,11,55,15.30
2005,04,24,11,56,15.20
2005,04,24,11,57,15.10
2005,04,24,11,58,15.10
2005,04,24,11,59,15.10
2005,04,24,12,00,15.30
2005,04,24,12,01,15.40
2005,04,24,12,02,15.40
2005,04,24,12,03,15.40
2005,04,24,12,04,15.40
2005,04,24,12,05,15.40
2005,04,24,12,06,15.30
2005,04,24,12,07,15.20
2005,04,24,12,08,15.10
2005,04,24,12,09,15.00
2005,04,24,12,10,15.10
2005,04,24,12,11,15.10
2005,04,24,12,12,15.00
2005,04,24,12,13,15.00
2005,04,24,12,14,15.10
2005,04,24,12,15,15.00
2005,04,24,12,16,14.90
2005,04,24,12,17,14.90
2005,04,24,12,18,14.80
2005,04,24,12,19,14.90
2005,04,24,12,20,15.00
2005,04,24,12,21,15.10
2005,04,24,12,22,15.00
2005,04,24,12,23,15.10
2005,04,24,12,24,15.10
2005,04,24,12,25,15.00
2005,04,24,12,26,14.80
2005,04,24,12,27,14.80
2005,04,24,12,28,14.90
2005,04,24,12,29,15.10
2005,04,24,12,30,15.10
2005,04,24,12,31,15.20
2005,04,24,12,32,15.30
2005,04,24,12,33,15.40
2005,04,24,12,34,15.40
2005,04,24,12,35,15.50
2005,04,24,12,36,15.60
2005,04,24,12,37,15.60
2005,04,24,12,38,15.60
2005,04,24,12,39,15.80
2005,04,24,12,40,15.80
2005,04,24,12,41,15.80
2005,04,24,12,42,15.90
2005,04,24,12,43,15.90
2005,04,24,12,44,15.90
2005,04,24,12,45,15.90
2005,04,24,12,46,15.80
2005,04,24,12,47,15.80
2005,04,24,12,48,15.80
2005,04,24,12,49,15.90
2005,04,24,12,50,15.80
2005,04,24,12,51,15.70
2005,04,24,12,52,15.60
2005,04,24,12,53,15.60
2005,04,24,12,54,15.70
2005,04,24,12,55,15.90
2005,04,24,12,56,16.00
2005,04,24,12,57,16.10
2005,04,24,12,58,16.20
2005,04,24,12,59,16.10
2005,04,24,13,00,16.00
2005,04,24,13,01,15.80
2005,04,24,13,02,15.80
2005,04,24,13,03,15.80
2005,04,24,13,04,15.70
2005,04,24,13,05,15.60
2005,04,24,13,06,15.70
2005,04,24,13,07,15.80
2005,04,24,13,08,15.90
2005,04,24,13,09,16.10
2005,04,24,13,10,16.00
2005,04,24,13,11,15.90
2005,04,24,13,12,16.00
2005,04,24,13,13,16.00
2005,04,24,13,14,16.10
2005,04,24,13,15,16.10
2005,04,24,13,16,16.10
2005,04,24,13,17,15.90
2005,04,24,13,18,16.00
2005,04,24,13,19,15.80
2005,04,24,13,20,15.90
2005,04,24,13,21,16.00
2005,04,24,13,22,16.20
2005,04,24,13,23,16.10
2005,04,24,13,24,16.00
2005,04,24,13,25,15.70
2005,04,24,13,26,15.70
2005,04,24,13,27,15.70
2005,04,24,13,28,15.70
2005,04,24,13,29,15.60
2005,04,24,13,30,15.70
2005,04,24,13,31,15.70
2005,04,24,13,32,15.70
2005,04,24,13,33,15.90
2005,04,24,13,34,15.80
2005,04,24,13,35,15.90
2005,04,24,13,36,16.00
2005,04,24,13,37,16.10
2005,04,24,13,38,16.20
2005,04,24,13,39,16.30
2005,04,24,13,40,16.50
2005,04,24,13,41,16.70
2005,04,24,13,42,16.80
2005,04,24,13,43,16.70
2005,04,24,13,44,16.70
2005,04,24,13,45,16.70
2005,04,24,13,46,16.80
2005,04,24,13,47,17.00
2005,04,24,13,48,17.20
2005,04,24,13,49,17.20
2005,04,24,13,50,17.10
2005,04,24,13,51,17.00
2005,04,24,13,52,16.80
2005,04,24,13,53,16.60
2005,04,24,13,54,16.40
2005,04,24,13,55,16.20
2005,04,24,13,56,16.20
2005,04,24,13,57,16.30
2005,04,24,13,58,16.30
2005,04,24,13,59,16.20
2005,04,24,14,00,16.10
2005,04,24,14,01,16.10
2005,04,24,14,02,15.90
2005,04,24,14,03,15.80
2005,04,24,14,04,15.80
2005,04,24,14,05,15.80
2005,04,24,14,06,15.60
2005,04,24,14,07,15.50
2005,04,24,14,08,15.60
2005,04,24,14,09,15.70
2005,04,24,14,10,15.90
2005,04,24,14,11,15.90
2005,04,24,14,12,15.90
2005,04,24,14,13,15.90
2005,04,24,14,14,15.90
2005,04,24,14,15,15.90
2005,04,24,14,16,16.00
2005,04,24,14,17,16.00
2005,04,24,14,18,15.80
2005,04,24,14,19,15.80
2005,04,24,14,20,15.80
2005,04,24,14,21,15.80
2005,04,24,14,22,15.90
2005,04,24,14,23,15.90
2005,04,24,14,24,15.90
2005,04,24,14,25,15.80
2005,04,24,14,26,15.90
2005,04,24,14,27,15.90
2005,04,24,14,28,15.90
2005,04,24,14,29,15.90
2005,04,24,14,30,16.00
2005,04,24,14,31,16.00
2005,04,24,14,32,16.20
2005,04,24,14,33,16.30
2005,04,24,14,34,16.50
2005,04,24,14,35,16.60
2005,04,24,14,36,16.40
2005,04,24,14,37,16.40
2005,04,24,14,38,16.20
2005,04,24,14,39,16.10
2005,04,24,14,40,16.20
2005,04,24,14,41,16.10
2005,04,24,14,42,16.20
2005,04,24,14,43,16.40
2005,04,24,14,44,16.60
2005,04,24,14,45,16.80
2005,04,24,14,46,16.70
2005,04,24,14,47,16.60
2005,04,24,14,48,16.50
2005,04,24,14,49,16.40
2005,04,24,14,50,16.40
2005,04,24,14,51,16.40
2005,04,24,14,52,16.40
2005,04,24,14,53,16.40
2005,04,24,14,54,16.40
2005,04,24,14,55,16.40
2005,04,24,14,56,16.40
2005,04,24,14,57,16.40
2005,04,24,14,58,16.50
2005,04,24,14,59,16.40
2005,04,24,15,00,16.40
2005,04,24,15,01,16.40
2005,04,24,15,02,16.50
2005,04,24,15,03,16.60
2005,04,24,15,04,16.70
2005,04,24,15,05,16.70
2005,04,24,15,06,16.80
2005,04,24,15,07,16.80
2005,04,24,15,08,17.00
2005,04,24,15,09,17.00
2005,04,24,15,10,16.90
2005,04,24,15,11,16.80
2005,04,24,15,12,16.70
2005,04,24,15,13,16.80
2005,04,24,15,14,16.80
2005,04,24,15,15,16.80
2005,04,24,15,16,16.80
2005,04,24,15,17,16.80
2005,04,24,15,18,16.80
2005,04,24,15,19,16.90
2005,04,24,15,20,16.90
2005,04,24,15,21,16.90
2005,04,24,15,22,17.00
2005,04,24,15,23,17.10
2005,04,24,15,24,17.30
2005,04,24,15,25,17.50
2005,04,24,15,26,17.70
2005,04,24,15,27,17.90
2005,04,24,15,28,18.20
2005,04,24,15,29,18.50
2005,04,24,15,30,18.60
2005,04,24,15,31,18.70
2005,04,24,15,32,18.80
2005,04,24,15,33,18.80
2005,04,24,15,34,18.80
2005,04,24,15,35,19.00
2005,04,24,15,36,19.30
2005,04,24,15,37,19.70
2005,04,24,15,38,19.80
2005,04,24,15,39,19.80
2005,04,24,15,40,19.90
2005,04,24,15,41,20.10
2005,04,24,15,42,20.20
2005,04,24,15,43,20.20
2005,04,24,15,44,20.10
2005,04,24,15,45,20.10
2005,04,24,15,46,20.10
2005,04,24,15,47,20.10
2005,04,24,15,48,20.00
2005,04,24,15,49,20.10
2005,04,24,15,50,20.30
2005,04,24,15,51,20.50
2005,04,24,15,52,21.00
2005,04,24,15,53,21.00
2005,04,24,15,54,21.10
2005,04,24,15,55,21.10
2005,04,24,15,56,21.30
2005,04,24,15,57,21.40
2005,04,24,15,58,21.30
2005,04,24,15,59,21.30
2005,04,24,16,00,21.30
2005,04,24,16,01,21.30
2005,04,24,16,02,21.40
2005,04,24,16,03,21.40
2005,04,24,16,04,21.40
2005,04,24,16,05,21.50
2005,04,24,16,06,21.40
2005,04,24,16,07,21.40
2005,04,24,16,08,21.40
2005,04,24,16,09,21.30
2005,04,24,16,10,21.30
2005,04,24,16,11,21.30
2005,04,24,16,12,21.20
2005,04,24,16,13,21.40
2005,04,24,16,14,21.50
2005,04,24,16,15,21.50
2005,04,24,16,16,21.20
2005,04,24,16,17,21.20
2005,04,24,16,18,21.10
2005,04,24,16,19,21.10
2005,04,24,16,20,21.00
2005,04,24,16,21,20.80
2005,04,24,16,22,20.80
2005,04,24,16,23,20.70
2005,04,24,16,24,20.50
2005,04,24,16,25,20.40
2005,04,24,16,26,19.90
2005,04,24,16,27,19.60
2005,04,24,16,28,19.70
2005,04,24,16,29,20.00
2005,04,24,16,30,20.20
2005,04,24,16,31,20.50
2005,04,24,16,32,20.80
2005,04,24,16,33,20.90
2005,04,24,16,34,21.00
2005,04,24,16,35,21.10
2005,04,24,16,36,21.20
2005,04,24,16,37,21.00
2005,04,24,16,38,21.10
2005,04,24,16,39,21.10
2005,04,24,16,40,21.20
2005,04,24,16,41,21.30
2005,04,24,16,42,21.20
2005,04,24,16,43,21.20
2005,04,24,16,44,21.20
2005,04,24,16,45,21.10
2005,04,24,16,46,20.70
2005,04,24,16,47,20.80
2005,04,24,16,48,20.70
2005,04,24,16,49,20.70
2005,04,24,16,50,20.70
2005,04,24,16,51,20.60
2005,04,24,16,52,20.70
2005,04,24,16,53,20.70
2005,04,24,16,54,20.70
2005,04,24,16,55,20.50
2005,04,24,16,56,20.40
2005,04,24,16,57,20.20
2005,04,24,16,58,20.30
2005,04,24,16,59,20.40
2005,04,24,17,00,20.40
2005,04,24,17,01,20.40
2005,04,24,17,02,20.20
2005,04,24,17,03,20.20
2005,04,24,17,04,19.90
2005,04,24,17,05,19.90
2005,04,24,17,06,20.00
2005,04,24,17,07,19.90
2005,04,24,17,08,20.00
2005,04,24,17,09,19.90
2005,04,24,17,10,19.90
2005,04,24,17,11,19.80
2005,04,24,17,12,19.80
2005,04,24,17,13,19.90
2005,04,24,17,14,19.90
2005,04,24,17,15,19.80
2005,04,24,17,16,19.80
2005,04,24,17,17,19.90
2005,04,24,17,18,19.90
2005,04,24,17,19,19.90
2005,04,24,17,20,19.90